Stations météo

Publicité
Saint-Brieuc, France (7120): Température de l'air & dewpoint: 31.03.2020 17:00:00 - 06.04.2020 17:00:00 (CEST)Saint-Brieuc, France (7120): Température de l'air 5cm: 31.03.2020 17:00:00 - 06.04.2020 17:00:00 (CEST)Saint-Brieuc, France (7120): Température de l'air -20cm & Température de l'air -100cm: 31.03.2020 17:00:00 - 06.04.2020 17:00:00 (CEST)Saint-Brieuc, France (7120): Vitesse du vent & gusts: 31.03.2020 17:00:00 - 06.04.2020 17:00:00 (CEST)Saint-Brieuc, France (7120): Direction du vent: 31.03.2020 17:00:00 - 06.04.2020 17:00:00 (CEST)Saint-Brieuc, France (7120): reduced air pressure: 31.03.2020 17:00:00 - 06.04.2020 17:00:00 (CEST)Saint-Brieuc, France (7120): visibility: 31.03.2020 17:00:00 - 06.04.2020 17:00:00 (CEST)Saint-Brieuc, France (7120): Ensoleillement: 31.03.2020 17:00:00 - 06.04.2020 17:00:00 (CEST)Saint-Brieuc, France (7120): Quantités de précipitations: 31.03.2020 17:00:00 - 06.04.2020 17:00:00 (CEST)
Date & Time tt [°C] td [°C] tt 5cm [°C] tt -20cm [°C] tt -100cm [°C] ff [km/h] ff [knt] fx [km/h] fx [knt] dd ppp [hPa] vv [km] sd [min] rr [mm]
06.04.2020 17:00:00 13,0 9,6 15,7 11,4 9,7 16 9 24 13 NNE 1022,3 19 9 0,0
06.04.2020 16:00:00 13,6 9,2 15,4 11,2 9,7 15 8 31 17 NE 1022,0 20 12 0,0
06.04.2020 15:00:00 13,5 8,5 16,6 10,9 9,7 22 12 31 17 NE 1021,3 20 31 0,0
06.04.2020 14:00:00 15,2 4,0 15,3 10,7 9,7 12 7 24 13 W 1020,5 20 6 0,0
06.04.2020 13:00:00 14,5 4,8 14,9 10,5 9,7 14 8 30 16 W 1019,8 20 19 0,0
06.04.2020 12:00:00 14,5 5,8 12,3 10,4 9,6 20 11 32 18 W 1019,1 20 44 0,0
06.04.2020 11:00:00 14,0 8,2 14,9 10,3 9,6 16 9 27 15 W 1018,2 20 60 0,0
06.04.2020 10:00:00 11,9 8,0 12,2 10,3 9,5 18 10 27 15 WSW 1017,4 20 60 0,0
06.04.2020 09:00:00 10,4 8,2 7,6 10,4 9,5 14 8 22 12 WSW 1016,4 20 47 0,0
06.04.2020 08:00:00 9,2 7,8 7,1 10,6 9,5 11 6 20 11 WSW 1015,5 20 0 0,0
06.04.2020 07:00:00 9,6 7,9 7,0 10,6 9,5 10 5 18 10 W 1014,1 20 0 0,0
06.04.2020 06:00:00 11,0 8,9 9,9 10,7 9,6 12 7 34 18 WNW 1013,1 20 0 0,0
06.04.2020 05:00:00 12,3 10,4 11,3 10,7 9,5 12 7 28 15 SW 1012,0 20 0 0,0
06.04.2020 04:00:00 12,9 10,6 12,1 10,7 9,6 10 5 29 16 SSW 1011,5 20 0 0,0
06.04.2020 03:00:00 12,5 10,0 11,6 10,7 9,5 13 7 29 16 SW 1011,3 20 0 0,0
06.04.2020 02:00:00 12,4 9,4 11,3 10,8 9,5 15 8 24 13 SSW 1010,9 20 0 0,0
06.04.2020 01:00:00 12,5 9,1 11,6 10,9 9,5 14 7 24 13 S 1010,7 20 0 0,0
06.04.2020 00:00:00 12,8 9,1 11,6 11,0 9,5 11 6 19 10 S 1010,8 20 0 0,0
05.04.2020 23:00:00 13,5 8,3 12,5 11,0 9,5 10 5 36 19 SSW 1011,0 20 0 0,0
05.04.2020 22:00:00 13,8 7,6 12,7 11,1 9,5 16 9 31 17 S 1010,7 20 0 0,0
05.04.2020 21:00:00 14,8 7,3 13,9 11,1 9,4 14 8 35 19 S 1010,1 20 10 0,0
05.04.2020 20:00:00 16,0 7,2 15,7 11,0 9,4 21 11 53 29 S 1009,5 20 60 0,0
05.04.2020 19:00:00 17,0 6,8 18,8 10,9 9,4 32 17 56 30 S 1009,3 20 60 0,0
05.04.2020 18:00:00 17,9 7,3 19,3 10,7 9,5 31 17 58 32 S 1009,1 20 32 0,0
05.04.2020 17:00:00 18,3 6,8 19,5 10,4 9,6 30 16 57 31 S 1009,2 20 49 0,0
05.04.2020 16:00:00 18,7 7,5 21,9 10,1 9,7 29 15 54 29 S 1009,3 20 58 0,0
05.04.2020 15:00:00 18,7 7,8 19,7 9,7 9,7 29 16 57 31 S 1009,6 20 47 0,0
05.04.2020 14:00:00 17,8 7,5 18,7 9,4 9,8 31 17 55 30 S 1010,0 20 39 0,0
05.04.2020 13:00:00 16,8 7,4 18,0 9,2 9,8 26 14 53 29 S 1010,3 20 27 0,0
05.04.2020 12:00:00 15,0 6,8 14,7 9,0 9,8 26 14 51 27 S 1010,9 20 32 0,0
05.04.2020 11:00:00 13,6 6,5 14,1 8,9 9,7 28 15 49 27 S 1010,9 20 4 0,0
05.04.2020 10:00:00 13,6 5,5 12,8 8,9 9,6 25 13 51 28 S 1010,9 20 55 0,0
05.04.2020 09:00:00 12,5 4,2 10,5 8,9 9,6 24 13 41 22 S 1011,3 20 57 0,0
05.04.2020 08:00:00 11,1 3,1 8,5 9,0 9,6 19 10 33 18 SSE 1011,2 20 0 0,0
05.04.2020 07:00:00 10,5 2,3 8,1 9,1 9,6 21 11 35 19 S 1011,3 20 0 0,0
05.04.2020 06:00:00 10,3 2,6 7,6 9,3 9,5 13 7 24 13 SSE 1011,4 20 0 0,0
05.04.2020 05:00:00 9,9 2,5 3,7 9,4 9,5 10 5 18 10 SSE 1012,2 20 0 0,0
05.04.2020 04:00:00 7,6 2,1 3,4 9,6 9,4 8 4 12 6 SE 1012,8 20 0 0,0
05.04.2020 03:00:00 8,3 2,3 2,6 9,8 9,4 9 5 12 6 SE 1013,6 20 0 0,0
05.04.2020 02:00:00 8,9 2,2 4,1 10,0 9,4 8 4 13 7 SE 1014,2 20 0 0,0
05.04.2020 01:00:00 10,2 2,5 6,9 10,1 9,4 9 5 21 12 SSE 1014,5 20 0 0,0
05.04.2020 00:00:00 11,4 2,7 8,7 10,3 9,4 14 8 24 13 SSE 1014,5 20 0 0,0
04.04.2020 23:00:00 11,4 2,7 8,2 10,4 9,4 10 5 16 8 SSE 1014,8 20 0 0,0
04.04.2020 22:00:00 12,3 2,7 8,8 10,6 9,4 8 4 16 9 SSE 1015,0 20 0 0,0
04.04.2020 21:00:00 14,2 2,7 11,8 10,6 9,4 11 6 31 17 SE 1014,7 20 23 0,0
04.04.2020 20:00:00 16,2 3,3 16,5 10,6 9,3 18 10 36 19 SE 1014,5 20 60 0,0
04.04.2020 19:00:00 17,2 3,5 19,1 10,4 9,3 21 11 36 20 SE 1014,5 20 60 0,0
04.04.2020 18:00:00 17,4 3,6 20,8 10,2 9,4 19 10 39 21 SSE 1014,8 20 60 0,0
04.04.2020 17:00:00 17,6 3,1 21,3 9,8 9,6 24 13 38 20 SE 1015,4 20 60 0,0
04.04.2020 16:00:00 17,0 3,6 20,4 9,4 9,6 20 11 40 21 SSE 1016,1 20 60 0,0
04.04.2020 15:00:00 16,8 3,5 20,4 9,0 9,6 22 12 37 20 SSE 1016,9 20 60 0,0
04.04.2020 14:00:00 16,0 3,4 19,0 8,6 9,7 23 12 45 25 SSE 1017,3 20 60 0,0
04.04.2020 13:00:00 14,9 3,4 17,8 8,3 9,6 25 14 42 23 S 1018,1 20 60 0,0
04.04.2020 12:00:00 14,0 3,7 17,0 8,0 9,5 27 15 44 24 SSE 1018,5 20 60 0,0
04.04.2020 11:00:00 12,8 5,7 13,4 7,9 9,6 19 10 31 17 SSE 1018,7 20 60 0,0
04.04.2020 10:00:00 9,4 5,9 9,0 7,9 9,4 7 4 10 5 SE 1019,1 20 60 0,0
04.04.2020 09:00:00 7,1 4,4 1,9 8,0 9,4 5 3 10 5 SSE 1019,1 20 55 0,0
04.04.2020 08:00:00 4,6 3,1 0,5 8,1 9,3 6 3 10 6 S 1019,3 20 0 0,0
04.04.2020 07:00:00 4,5 2,8 0,7 8,3 9,3 6 4 11 6 S 1019,2 20 0 0,0
04.04.2020 06:00:00 4,7 2,7 0,6 8,5 9,3 8 5 10 5 SSE 1019,3 20 0 0,0
04.04.2020 05:00:00 5,2 3,5 0,5 8,6 9,3 6 3 9 5 SSE 1019,7 20 0 0,0
04.04.2020 04:00:00 5,1 4,4 0,5 8,7 9,3 6 3 12 7 SSE 1020,0 16 0 0,0
04.04.2020 03:00:00 4,9 4,0 2,1 8,9 9,4 8 4 10 5 SSE 1020,4 12 0 0,0
04.04.2020 02:00:00 6,0 5,4 3,0 9,1 9,4 7 4 11 6 SSE 1020,5 11 0 0,0
04.04.2020 01:00:00 6,2 5,6 1,6 9,2 9,4 8 4 11 6 SSE 1020,7 8 0 0,0
04.04.2020 00:00:00 6,0 5,3 1,6 9,4 9,4 5 3 7 4 SSE 1020,8 6 0 0,0
03.04.2020 23:00:00 6,9 6,0 2,3 9,5 9,4 3 1 5 3 SE 1020,8 12 0 0,0
03.04.2020 22:00:00 7,4 6,2 2,7 9,6 9,4 3 2 5 3 ESE 1020,6 14 0 0,0
03.04.2020 21:00:00 7,6 6,1 3,9 9,7 9,4 4 2 10 5 E 1020,3 18 4 0,0
03.04.2020 20:00:00 8,5 6,5 8,3 9,7 9,5 7 4 18 10 NE 1020,4 20 14 0,0
03.04.2020 19:00:00 9,3 6,7 10,4 9,7 9,5 14 8 22 12 NE 1020,3 20 1 0,0
03.04.2020 18:00:00 9,9 7,0 10,9 9,6 9,6 17 9 27 15 NE 1020,3 19 0 0,0
03.04.2020 17:00:00 10,7 6,8 12,4 9,4 9,7 18 10 25 13 NE 1020,2 20 7 0,0
03.04.2020 16:00:00 10,7 6,1 13,2 9,1 9,8 15 8 24 13 ENE 1020,6 20 18 0,0
03.04.2020 15:00:00 11,4 6,1 13,5 8,7 9,8 16 9 21 12 NE 1020,4 20 25 0,0
03.04.2020 14:00:00 12,7 5,8 13,5 8,3 9,8 10 5 23 12 NW 1020,4 20 40 0,0
03.04.2020 13:00:00 12,1 5,7 13,0 7,9 9,8 11 6 21 12 WNW 1020,9 20 51 0,0
03.04.2020 12:00:00 10,6 5,6 11,9 7,7 9,7 12 6 23 13 WNW 1021,1 19 52 0,0
03.04.2020 11:00:00 9,6 6,7 11,5 7,6 9,6 16 9 25 14 WNW 1021,0 20 55 0,0
03.04.2020 10:00:00 8,0 6,1 8,6 7,6 9,6 13 7 18 10 W 1020,6 19 60 0,0
03.04.2020 09:00:00 6,4 5,5 2,6 7,6 9,4 9 5 16 9 W 1020,6 17 53 0,0
03.04.2020 08:00:00 4,3 3,6 2,1 7,7 9,4 11 6 19 10 W 1020,3 15 0 0,0
03.04.2020 07:00:00 4,7 4,1 2,5 7,9 9,4 14 8 20 11 W 1019,9 17 0 0,0
03.04.2020 06:00:00 5,0 4,3 3,2 7,9 9,3 14 8 19 10 W 1019,9 19 0 0,0
03.04.2020 05:00:00 5,2 4,3 3,2 8,1 9,3 14 7 18 10 W 1019,7 19 0 0,0
03.04.2020 04:00:00 5,4 4,5 3,7 8,2 9,3 13 7 19 10 W 1019,7 17 0 0,0
03.04.2020 03:00:00 6,0 5,3 4,1 8,3 9,3 16 8 21 12 W 1019,8 15 0 0,0
03.04.2020 02:00:00 5,8 4,9 4,0 8,4 9,3 14 8 19 10 W 1019,8 15 0 0,0
03.04.2020 01:00:00 6,2 5,0 4,3 8,5 9,3 14 8 19 10 W 1019,9 19 0 0,0
03.04.2020 00:00:00 6,2 5,2 4,7 8,6 9,3 13 7 21 12 WNW 1020,0 18 0 0,0
02.04.2020 23:00:00 7,1 5,7 5,8 8,7 9,3 14 8 21 11 NW 1019,9 20 0 0,0
02.04.2020 22:00:00 7,9 5,7 6,7 8,7 9,3 16 9 31 17 NW 1019,9 20 0 0,0
02.04.2020 21:00:00 8,7 5,6 8,2 8,7 9,3 14 7 26 14 NW 1019,6 20 0 0,0
02.04.2020 20:00:00 9,2 5,2 9,1 8,7 9,3 18 10 31 17 NW 1019,2 20 4 0,0
02.04.2020 19:00:00 10,0 3,5 10,8 8,5 9,4 19 10 31 17 NW 1019,2 20 19 0,0
02.04.2020 18:00:00 10,7 3,0 11,5 8,3 9,4 21 11 33 18 NNW 1018,9 20 13 0,0
02.04.2020 17:00:00 10,5 2,8 12,2 8,1 9,4 15 8 27 14 NNW 1019,0 20 7 0,0
02.04.2020 16:00:00 10,7 2,8 13,5 7,8 9,4 15 8 27 14 N 1019,3 20 3 0,0
02.04.2020 15:00:00 10,0 2,3 13,3 7,6 9,4 10 5 23 12 N 1019,4 20 0 0,0
02.04.2020 14:00:00 8,9 0,3 10,1 7,5 9,4 16 9 26 14 N 1020,0 20 0 0,0
02.04.2020 13:00:00 8,5 -0,5 10,3 7,4 9,4 18 10 31 17 N 1020,1 20 0 0,0
02.04.2020 12:00:00 8,6 0,3 10,1 7,2 9,4 22 12 29 16 NNE 1020,2 20 0 0,0
02.04.2020 11:00:00 7,9 1,5 6,2 7,2 9,4 11 6 22 12 N 1020,0 20 0 0,0
02.04.2020 10:00:00 5,5 1,0 3,9 7,2 9,3 3 2 9 5 NW 1019,9 20 0 0,0
02.04.2020 09:00:00 4,1 1,1 2,9 7,3 9,4 5 3 7 4 WNW 1019,8 20 0 0,0
02.04.2020 08:00:00 3,2 0,9 1,4 7,4 9,4 6 3 10 5 W 1019,7 19 0 0,0
02.04.2020 07:00:00 3,1 0,3 -2,9 7,5 9,3 6 3 7 4 W 1019,5 20 0 0,0
02.04.2020 06:00:00 2,8 -0,1 -2,7 7,6 9,3 4 2 11 6 W 1019,6 20 0 0,0
02.04.2020 05:00:00 4,7 -0,1 1,0 7,7 9,3 8 4 13 7 NE 1019,7 20 0 0,0
02.04.2020 04:00:00 4,2 0,9 0,4 7,9 9,4 11 6 17 9 NE 1020,2 20 0 0,0
02.04.2020 03:00:00 3,5 0,7 0,5 8,0 9,4 10 5 24 13 NE 1020,6 20 0 0,0
02.04.2020 02:00:00 5,1 1,8 2,8 8,1 9,4 16 9 26 14 NE 1020,8 20 0 0,0
02.04.2020 01:00:00 5,1 1,4 3,6 8,2 9,4 17 9 32 17 NE 1021,0 20 0 0,0
02.04.2020 00:00:00 5,7 2,0 3,7 8,4 9,4 20 11 33 18 NNE 1021,0 20 0 0,0
01.04.2020 23:00:00 5,6 0,8 3,1 8,5 9,4 16 9 27 15 NNE 1021,0 20 0 0,0
01.04.2020 22:00:00 5,4 2,0 3,7 8,7 9,4 16 9 28 15 NE 1020,8 16 0 0,0
01.04.2020 21:00:00 6,0 2,8 4,7 8,7 9,4 19 11 33 18 NE 1020,3 13 19 0,0
01.04.2020 20:00:00 7,1 3,5 7,2 8,7 9,4 23 13 40 21 NNE 1020,3 12 52 0,0
01.04.2020 19:00:00 8,0 3,6 8,8 8,7 9,4 28 15 38 20 NNE 1020,3 17 55 0,0
01.04.2020 18:00:00 9,0 3,2 11,1 8,5 9,4 24 13 38 20 NNE 1020,3 20 57 0,0
01.04.2020 17:00:00 9,4 0,3 13,8 8,3 9,5 27 15 42 23 NNE 1020,5 20 60 0,0
01.04.2020 16:00:00 9,7 1,6 14,3 8,0 9,5 29 15 42 23 NE 1020,7 20 60 0,0
01.04.2020 15:00:00 9,5 2,3 13,6 7,7 9,5 31 17 41 22 ENE 1021,2 20 60 0,0
01.04.2020 14:00:00 8,9 2,2 13,9 7,4 9,5 27 15 37 20 NE 1021,7 19 60 0,0
01.04.2020 13:00:00 8,7 1,4 12,4 7,1 9,5 23 12 34 18 NE 1022,1 19 60 0,0
01.04.2020 12:00:00 8,1 1,2 11,3 6,9 9,5 23 13 35 19 ENE 1022,7 19 60 0,0
01.04.2020 11:00:00 7,4 1,9 9,1 6,9 9,5 22 12 34 18 ENE 1023,1 19 60 0,0
01.04.2020 10:00:00 6,5 1,8 6,9 6,9 9,5 22 12 35 19 ENE 1023,1 18 60 0,0
01.04.2020 09:00:00 5,5 1,8 3,1 7,0 9,5 14 7 24 13 ENE 1023,0 16 49 0,0
01.04.2020 08:00:00 4,2 0,9 2,1 7,1 9,6 16 8 30 16 ENE 1023,0 16 0 0,0
01.04.2020 07:00:00 4,1 1,1 2,3 7,2 9,5 15 8 27 15 E 1023,1 15 0 0,0
01.04.2020 06:00:00 4,5 1,2 2,3 7,3 9,5 15 8 26 14 E 1023,1 15 0 0,0
01.04.2020 05:00:00 4,9 0,7 3,1 7,4 9,6 16 9 33 18 E 1023,3 18 0 0,0
01.04.2020 04:00:00 5,0 0,7 3,4 7,5 9,6 19 10 35 19 E 1023,8 20 0 0,0
01.04.2020 03:00:00 5,3 1,2 3,9 7,6 9,6 21 11 37 20 E 1024,2 20 0 0,0
01.04.2020 02:00:00 5,2 1,7 3,8 7,8 9,6 21 11 40 22 ENE 1024,6 20 0 0,0
01.04.2020 01:00:00 5,4 1,5 4,1 7,9 9,6 23 13 44 24 ENE 1025,1 20 0 0,0
01.04.2020 00:00:00 5,7 1,4 4,4 8,0 9,6 26 14 51 28 ENE 1025,4 20 0 0,0
31.03.2020 23:00:00 5,9 1,2 4,7 8,1 9,7 34 18 55 30 ENE 1025,5 20 0 0,0
31.03.2020 22:00:00 6,2 1,7 5,0 8,3 9,8 34 18 56 30 ENE 1025,6 20 0 0,0
31.03.2020 21:00:00 6,4 2,1 5,3 8,4 9,8 40 22 56 30 ENE 1025,2 20 17 0,0
31.03.2020 20:00:00 7,1 2,6 7,1 8,4 9,8 34 18 51 28 ENE 1024,8 20 60 0,0
31.03.2020 19:00:00 7,8 3,1 9,6 8,3 9,8 37 20 56 30 NE 1024,7 19 60 0,0
31.03.2020 18:00:00 8,5 2,9 11,0 8,2 9,8 38 21 54 29 NE 1024,8 20 60 0,0
31.03.2020 17:00:00 8,6 2,8 11,2 7,9 9,8 40 22 56 30 NE 1025,1 20 58 0,0

tt = Température de l'air
td = dewpoint
tt 5cm = Température de l'air 5cm
tt -20cm = Température de l'air -20cm
tt -100cm = Température de l'air -100cm
ff = Vitesse du vent
fx = gusts
dd = Direction du vent
ppp = reduced air pressure
vv = visibility
sd = Ensoleillement
rr = Quantités de précipitations

stations d'obs. à proximité